Location: *
(41.7492°S, 135.4150°W)
Time: 07:31:04
(UTC+00:00)

AAUSAT CUBESAT 2 - Visible Passes

Search period start: 25 June 2022 00:00
Search period end: 05 July 2022 00:00
Orbit: 565 x 584 km, 97.5° (Epoch: 24 June)

Date Brightness Start Highest point End Pass type
(mag) Time Alt. Az. Time Alt. Az. Time Alt. Az.
25 Jun ? 02:39:45 10° S 02:43:25 29° WSW 02:47:01 10° NW visible
26 Jun ? 02:43:02 10° S 02:46:37 27° WSW 02:50:08 10° NW visible
27 Jun ? 02:46:21 10° SSW 02:49:48 25° WSW 02:53:13 10° NW visible
28 Jun ? 02:49:38 10° SSW 02:52:59 23° WSW 02:56:17 10° WNW visible
29 Jun ? 02:52:57 10° SSW 02:56:10 22° WSW 02:59:21 10° WNW visible
30 Jun ? 02:56:15 10° SSW 02:59:20 20° WSW 03:02:23 10° WNW visible
01 Jul ? 02:59:34 10° SSW 03:02:30 19° WSW 03:05:24 10° WNW visible
02 Jul ? 03:02:53 10° SSW 03:05:38 17° WSW 03:08:23 10° WNW visible
03 Jul ? 03:06:13 10° SSW 03:08:48 16° WSW 03:11:21 10° WNW visible
04 Jul ? 03:09:33 10° SSW 03:11:55 15° WSW 03:14:17 10° W visible
